USA 65

导读 | 星芒AI

USA 65 是一颗由美国国家侦察办公室(NRO)研制并发射的军用侦察卫星,于1993年12月19日通过大力神-3B火箭从卡纳维拉尔角发射升空。该卫星属于美国的“锁眼”(Keyhole)系列,主要用于执行高分辨率光学成像任务,支持情报收集和监视活动。USA 65 在轨运行多年,为美国及其盟友提供了重要的战略情报支持。其具体任务细节和性能参数因涉及国家安全而未公开。

基本信息
目录编号:
20929
目录名称:
USA 65
国际标识:
1990-095A
轨道中心:
EARTH
卫星名称:
USA 65
卫星全名:
--
卫星状态:
在轨 (已飞行12772 天)
发射日期:
1990-11-13 UTC
国别 :
美国 (US)
星等 :
--
轨道信息
数据来源 国际轨道数据 AOE轨道数据
星历时间 2025-11-01T02:18:43+0800
1天前
查看轨道信息
2025-10-31T03:00:00+0800
2天前
查看轨道信息
半长轴 42698.833km 42698.89km
偏心率 0.0002529 0.0002422
轨道倾角 14.147° 14.148°
近地点辐角 124.155° 124.091°
升交点赤经 345.618° 345.625°
平近点角 250.882° 266.865°
近地点 36309.899km 36310.413km
远地点 36331.497km 36331.097km
周期 1463.470分钟 1463.473分钟
每日圈数 0.983963 0.983961
详细信息
使用方式:
暂无
2D轨道图
3D轨道图
轨道高度分析图
轨道倾角分析图
轨道综合分析图
查看轨道综合分析图